Location: Peebles
(55.6412°N, 3.1714°W)
Time: 08:47:25
(UTC+00:00)

deb Kosmos-1275 - Visible Passes

Search period start: 30 November 2022 00:00
Search period end: 10 December 2022 00:00
Orbit: 809 x 888 km, 83.0° (Epoch: 29 November)

Date Brightness Start Highest point End Pass type
(mag) Time Alt. Az. Time Alt. Az. Time Alt. Az.
30 Nov ? 05:15:09 10° NNE 05:16:11 10° NE 05:17:12 10° NE visible
30 Nov ? 06:55:20 10° N 07:00:39 40° ENE 07:05:49 10° SE visible
01 Dec ? 06:42:49 10° N 06:48:02 37° ENE 06:53:06 10° SE visible
02 Dec ? 06:30:18 10° N 06:35:24 34° ENE 06:40:23 10° SE visible
03 Dec ? 06:17:47 10° N 06:22:46 31° ENE 06:27:38 10° SE visible
04 Dec ? 06:05:16 10° N 06:10:07 29° ENE 06:14:52 10° ESE visible
05 Dec ? 05:52:45 10° N 05:57:29 27° ENE 06:02:06 10° ESE visible
05 Dec ? 07:35:08 10° NNW 07:40:41 68° W 07:46:06 10° S visible
06 Dec ? 05:40:15 10° N 05:44:50 25° ENE 05:49:19 10° ESE visible
06 Dec ? 07:22:33 10° NNW 07:28:07 74° W 07:33:33 10° S visible
07 Dec ? 05:27:45 10° N 05:32:09 23° ENE 05:36:29 10° ESE visible
07 Dec ? 07:09:58 10° NNW 07:15:33 80° W 07:21:00 10° S visible
08 Dec ? 05:15:15 10° N 05:19:29 22° ENE 05:23:39 10° ESE visible
08 Dec ? 06:57:23 10° NNW 07:02:58 87° W 07:08:26 10° S visible
09 Dec ? 05:02:46 10° N 05:06:49 20° NE 05:10:48 10° ESE visible
09 Dec ? 06:44:48 10° N 06:50:23 86° E 06:55:50 10° S visible
